DateTimeUTC,F1_A11,F1_S11,BsB_S11,BsG_S11,BsR_S11,BbsB_S11,BbsG_S11,BbsR_S11,BaB_A11,BaG_A11,BaR_A11,Tu_S11,T_S11,Uu_S11,U_S11,P_S11,T1_A11
2021-05-06T20:00:00Z,00000200,21000000,,,,,,,-000.82,-000.36,-000.43,18.5,25.4,00.0,00.0,0673.2,31.1
2021-05-06T20:01:00Z,00000200,21000000,,,,,,,0000.25,-000.12,0000.05,18.5,25.4,,00.0,0673.2,31.1
2021-05-06T20:02:00Z,00000200,21000000,,,,,,,-000.46,-000.53,-000.23,18.4,25.4,,00.0,0673.2,31.1
2021-05-06T20:03:00Z,00000200,61000000,,,,,,,0001.42,0001.13,0000.78,18.4,25.4,,00.0,0673.2,31.1
2021-05-06T20:04:00Z,00000200,41000000,0005.13,0003.86,0002.04,0001.30,0000.70,0000.42,0000.70,0000.86,0000.33,18.5,25.2,00.4,00.2,0674.1,31.1
2021-05-06T20:05:00Z,00000200,01000000,0005.40,0003.70,0002.17,0001.23,0000.54,0000.22,0001.19,0000.91,0001.14,18.6,25.1,00.3,00.2,0674.2,31.1
2021-05-06T20:06:00Z,00000200,01000000,0005.31,0003.59,0002.04,0001.03,0000.19,0000.59,0001.35,0001.52,0000.69,18.5,25.1,00.4,00.3,0674.2,31.1
2021-05-06T20:07:00Z,00000200,01000000,0005.33,0003.26,0002.35,0001.25,0000.51,0000.37,0001.05,0001.00,0000.42,18.5,25.1,00.5,00.3,0674.2,31.1
2021-05-06T20:08:00Z,00000200,01000000,0004.73,0003.57,0002.31,0001.46,0000.55,0000.36,0001.24,0000.42,0000.83,18.5,25.1,00.4,00.3,0674.2,31.1
2021-05-06T20:09:00Z,00000200,01000000,0005.32,0003.72,0002.24,0001.36,0000.51,0000.53,0001.18,0001.39,0001.20,18.5,25.1,00.4,00.3,0674.2,31.1
2021-05-06T20:10:00Z,00000200,01000000,0004.81,0003.29,0002.14,0000.56,0000.57,0000.88,0001.03,0000.84,0000.35,18.5,25.0,00.4,00.3,0674.2,31.1
2021-05-06T20:11:00Z,00000200,01000000,0004.75,0003.80,0002.31,0000.47,0000.55,0000.65,0001.20,0001.16,0000.99,18.5,25.0,00.4,00.2,0674.2,31.1
2021-05-06T20:12:00Z,00000200,01000000,0004.83,0003.55,0002.17,0000.70,0000.68,0000.31,0001.22,0001.33,0000.85,18.4,25.0,00.4,00.3,0674.2,31.1
2021-05-06T20:13:00Z,00000200,01000000,0005.70,0003.49,0002.10,0000.69,0000.45,0000.59,0001.18,0000.77,0000.77,18.4,25.0,00.4,00.3,0674.2,31.1
2021-05-06T20:14:00Z,00000200,01000000,0005.17,0003.46,0002.05,0000.82,0000.59,0000.48,0000.92,0000.87,0000.38,18.4,24.9,00.5,00.3,0674.2,31.1
2021-05-06T20:15:00Z,00000200,01000000,0005.29,0003.50,0002.22,0000.80,0000.61,0000.40,0001.05,0001.15,0000.75,18.4,24.9,00.4,00.3,0674.2,31.1
2021-05-06T20:16:00Z,00000200,01000000,0005.26,0003.48,0002.31,0001.50,0000.53,0000.47,0001.16,0000.90,0000.94,18.3,24.9,00.5,00.4,0674.2,31.1
2021-05-06T20:17:00Z,00000200,01000000,0005.53,0003.86,0002.03,0000.92,0000.75,0000.29,0000.73,0001.19,0000.72,18.3,24.9,00.5,00.3,0674.2,31.0
2021-05-06T20:18:00Z,00000200,01000000,0004.66,0003.83,0002.41,0001.26,0000.56,0000.31,0001.44,0000.38,0000.73,18.3,24.9,00.4,00.3,0674.2,31.1
2021-05-06T20:19:00Z,00000200,01000000,0004.90,0003.37,0002.19,0001.22,0000.47,0000.39,0001.21,0001.41,0000.87,18.3,24.8,00.5,00.3,0674.2,31.1
2021-05-06T20:20:00Z,00000200,01000000,0004.98,0003.46,0002.17,0000.42,0000.53,0000.27,0000.96,0000.86,0000.62,18.3,24.8,00.5,00.3,0674.2,31.1
2021-05-06T20:21:00Z,00000200,01000000,0005.47,0003.58,0002.21,0001.06,0000.54,0000.61,0000.97,0001.25,0000.68,18.3,24.8,00.5,00.3,0674.1,31.1
2021-05-06T20:22:00Z,00000200,01000000,0004.73,0003.44,0002.23,0000.86,0000.31,0000.49,0001.28,0000.65,0000.48,18.2,24.8,00.4,00.3,0674.2,31.1
2021-05-06T20:23:00Z,00000200,01000000,0005.84,0003.37,0002.03,0000.58,0000.69,0000.76,0000.72,0000.97,0000.97,18.2,24.8,00.4,00.2,0674.2,31.1
2021-05-06T20:24:00Z,00000200,01000000,0004.99,0003.62,0002.14,0001.02,0000.64,0000.62,0001.31,0000.83,0000.54,18.2,24.8,00.4,00.3,0674.2,31.1
2021-05-06T20:25:00Z,00000200,01000000,0004.62,0003.65,0002.17,0001.36,0000.44,0000.63,0000.71,0000.91,0000.66,18.2,24.7,00.4,00.3,0674.2,31.1
2021-05-06T20:26:00Z,00000200,01000000,0004.40,0003.10,0002.06,0000.29,0000.61,0000.73,0001.16,0001.00,0000.94,18.2,24.7,00.4,00.3,0674.2,31.1
2021-05-06T20:27:00Z,00000200,01000000,0005.62,0003.16,0002.36,0000.92,0000.71,0000.52,0000.95,0000.81,0000.45,18.1,24.7,00.4,00.3,0674.1,31.1
2021-05-06T20:28:00Z,00000200,01000000,0005.17,0003.44,0002.11,0000.88,0000.48,0000.26,0001.07,0001.11,0000.66,18.1,24.7,00.4,00.3,0674.1,31.1
2021-05-06T20:29:00Z,00000200,01000000,0004.46,0003.22,0001.89,0001.32,-000.08,0000.40,0001.40,0001.04,0000.64,18.1,24.7,00.3,00.2,0674.2,31.1
2021-05-06T20:30:00Z,00000200,01000000,0005.22,0003.60,0002.24,0000.33,0000.49,0000.41,0001.17,0001.24,0001.02,18.1,24.6,00.4,00.3,0674.1,31.1
2021-05-06T20:31:00Z,00000200,01000000,0004.64,0003.48,0001.99,0001.07,0000.24,0000.21,0000.91,0000.73,0000.54,18.0,24.6,00.4,00.3,0674.1,31.1
2021-05-06T20:32:00Z,00000200,01000000,0005.11,0003.51,0002.26,0000.43,0000.71,0000.78,0001.11,0001.00,0000.53,18.0,24.6,00.4,00.3,0674.1,31.0
2021-05-06T20:33:00Z,00000200,01000000,0005.35,0003.72,0002.13,0000.71,0000.88,0000.47,0000.90,0000.86,0000.90,18.0,24.6,00.4,00.3,0674.1,31.0
2021-05-06T20:34:00Z,00000200,01000000,0005.13,0003.49,0002.12,0000.68,0000.50,0000.52,0001.18,0000.67,0000.61,18.0,24.6,00.5,00.3,0674.1,31.0
2021-05-06T20:35:00Z,00000200,01000000,0004.65,0003.50,0002.58,0000.62,0000.32,0000.09,0001.26,0001.14,0000.88,18.0,24.6,00.5,00.3,0674.1,31.0
2021-05-06T20:36:00Z,00000200,01000000,0004.45,0003.47,0002.00,0000.64,0000.45,0000.57,0000.97,0001.12,0001.00,17.9,24.5,00.4,00.3,0674.1,31.0
2021-05-06T20:37:00Z,00000200,01000000,0004.49,0003.53,0001.88,0000.62,0000.60,0000.52,0001.16,0000.82,0000.49,17.9,24.5,00.3,00.2,0674.1,31.0
2021-05-06T20:38:00Z,00000200,01000000,0004.62,0003.62,0002.30,0001.17,0000.24,0000.39,0000.94,0000.96,0000.64,17.9,24.5,00.3,00.2,0674.1,31.0
2021-05-06T20:39:00Z,00000200,01000000,0005.59,0003.51,0001.76,0000.77,0000.45,0000.49,0001.06,0000.49,0000.90,17.9,24.5,00.4,00.3,0674.1,31.0
2021-05-06T20:40:00Z,00000200,01000000,0005.13,0003.59,0002.01,0000.98,0000.44,0000.55,0001.07,0001.44,0000.30,17.9,24.5,00.4,00.3,0674.1,31.0
2021-05-06T20:41:00Z,00000200,01000000,0004.79,0003.06,0002.27,0000.88,0000.40,0000.40,0000.92,0000.74,0000.75,17.9,24.4,00.4,00.3,0674.1,31.0
2021-05-06T20:42:00Z,00000200,01000000,0005.33,0003.82,0002.36,0000.97,0000.63,0000.74,0001.05,0000.71,0000.60,17.9,24.4,00.3,00.2,0674.1,31.0
2021-05-06T20:43:00Z,00000200,01000000,0004.48,0003.55,0001.85,0001.14,0000.52,0000.43,0001.15,0001.00,0000.49,17.8,24.4,00.4,00.2,0674.1,31.0
2021-05-06T20:44:00Z,00000200,01000000,0005.58,0003.30,0002.30,0000.97,0000.40,0000.55,0000.70,0000.95,0000.86,17.8,24.4,00.4,00.2,0674.1,31.0
2021-05-06T20:45:00Z,00000200,01000000,0005.03,0003.66,0001.98,0001.12,0000.45,0000.18,0001.30,0001.05,0000.94,17.8,24.4,00.4,00.3,0674.1,31.0
2021-05-06T20:46:00Z,00000200,01000000,0004.53,0003.28,0002.08,0001.06,0000.51,0000.89,0001.29,0001.03,0000.76,17.8,24.4,00.3,00.2,0674.1,31.0
2021-05-06T20:47:00Z,00000200,01000000,0005.07,0003.93,0002.23,0000.54,0000.60,0000.50,0000.61,0000.60,0000.73,17.7,24.3,00.4,00.3,0674.1,31.0
2021-05-06T20:48:00Z,00000200,01000000,0005.22,0003.76,0002.18,0000.66,0000.51,0000.46,0001.22,0001.05,0000.67,17.7,24.3,00.4,00.3,0674.1,31.0
2021-05-06T20:49:00Z,00000200,01000000,0005.12,0003.46,0002.43,0001.16,0000.71,0000.31,0000.81,0001.24,0000.76,17.7,24.3,00.4,00.2,0674.1,31.0
2021-05-06T20:50:00Z,00000200,01000000,0005.69,0003.56,0001.89,0000.90,0000.64,0000.22,0000.84,0000.72,0000.37,17.7,24.3,00.3,00.2,0674.1,31.0
2021-05-06T20:51:00Z,00000200,01000000,0005.18,0003.75,0002.31,0000.76,0000.67,0000.39,0001.48,0000.85,0000.96,17.7,24.3,00.3,00.2,0674.1,31.0
2021-05-06T20:52:00Z,00000200,01000000,0005.83,0003.32,0002.16,0000.39,0000.73,0000.53,0001.37,0000.82,0000.53,17.7,24.2,00.4,00.2,0674.1,31.0
2021-05-06T20:53:00Z,00000200,01000000,0005.35,0003.47,0002.14,0000.92,0000.57,0000.29,0000.50,0000.78,0000.62,17.6,24.2,00.3,00.2,0674.1,31.0
2021-05-06T20:54:00Z,00000200,01000000,0005.64,0003.75,0002.33,0000.94,0000.56,0000.41,0001.28,0000.93,0000.70,17.6,24.2,00.4,00.2,0674.1,31.0
2021-05-06T20:55:00Z,00000200,01000000,0004.96,0003.47,0002.22,0000.91,0000.41,0000.11,0001.19,0001.34,0000.88,17.7,24.2,00.3,00.2,0674.1,31.0
2021-05-06T20:56:00Z,00000200,01000000,0005.64,0003.62,0002.24,0000.58,0000.42,0000.58,0001.24,0001.35,0001.17,17.7,24.3,00.4,00.3,0674.0,31.0
2021-05-06T20:57:00Z,00000200,41000000,,,,,,,0000.34,0000.19,0000.15,17.8,24.3,00.3,00.2,0674.1,31.1
2021-05-06T20:58:00Z,00000200,61000000,,,,,,,-000.47,-000.26,-000.45,17.6,24.5,00.3,00.2,0673.1,31.1
2021-05-06T20:59:00Z,00000200,21000000,,,,,,,-000.38,-000.16,-000.20,17.6,24.6,00.1,00.1,0673.1,31.1
